Погода в Глуске

Беларусь     52°53′58″N   28°41′14″E
В апреле 2022 года жителям России запретили посещать сайт meteo.paraplan.net по решению Генеральной прокуратуры. Аудитория сайта уменьшилась в 10 раз. Владельцы сайта не видят смысла в поддержке погодного сервера в таких условиях. Сайт будет закрыт в октябре.
темп.,
°C
ветер,
м/с
пор.,
м/с
влажн.,
%
обл.,
%
осадки,
мм/ч
давл.,
гПа
погр.,
м
3 октября, пн
пн300:00+7сз71393100 3.3 10001136
03:00+6сз81591100 6.2 9981099
06:00+6сз81693100 3.3 9961146
09:00+6зсз81595100 8.0 9941184
12:00+5зсз81496100 5.6 9941179
15:00+4зсз71497100 11.1 9941130
18:00+4зсз71397100 3.0 9951063
21:00+4зсз71297100 4.1 9961004
4 октября, вт
вт400:00+5зсз61097100 0.4 9971043
03:00+5зсз51097100 2.0 9991033
06:00+5зсз4997100 0.9 10001088
09:00+6з4996100 1.4 10021160
12:00+6з51093100 0.3 10041040
15:00+7зсз51193100 0.9 10071097
18:00+6з3995100 1.1 1009586
21:00+9зсз6138494 1.7 10101188
5 октября, ср
ср500:00+8з5138960 0.1 1012777
03:00+7зсз5139495 0.1 1015696
06:00+6зсз5129639 0.0 1017480
09:00+7з41094100 0.0 1018383
12:00+10з498588 0.0 1020594
15:00+10зюз3887100 0.1 1020469
18:00+10юз4985100 0.0 1020425
21:00+10зюз41290100 0.0 1020406
6 октября, чт
чт600:00+10зюз41193100 0.0 1020360
03:00+10юз2692100 0.0 1020176
06:00+9ююз3793100 0.0 1020173
09:00+10юз398741 0.0 1020259
12:00+15зюз58685 0.0 1019564
15:00+17зюз5106599 0.0 1019938
18:00+15з5117658 0.0 1020499
21:00+14сз512770 0.0 1023667
7 октября, пт
пт700:00+10зсз411900 0.0 1025467
03:00+9зсз412850 0.0 1026401
06:00+7з311930 0.0 1027328
09:00+8з411880 0.0 1027407
12:00+13зсз58690 0.0 1027733
15:00+15з46585 0.0 10261039
18:00+12зюз24766 0.0 102671
21:00+9зюз23846 0.0 102648